This is the latest recevied weather packets stored in our database for station/object N0ZRD-10. If no packets are shown the sender has not sent any weather packets the latest 10 day(s).
| Time | Temp. | Humidity | Pressure | Rain* | Wind** | Luminosity | Snow |
|---|---|---|---|---|---|---|---|
| 1777761635 | 17.22° C | 24% | - | 0 mm | - | - | - |
| 1777761035 | 16.67° C | 25% | - | 0 mm | - | - | - |
| 1777760434 | 16.67° C | 26% | - | 0 mm | - | - | - |
| 1777759832 | 16.11° C | 27% | - | 0 mm | - | - | - |
| 1777759232 | 16.11° C | 28% | - | 0 mm | - | - | - |
| 1777758028 | 16.11° C | 26% | - | 0 mm | - | - | - |
| 1777757427 | 16.11° C | 25% | - | 0 mm | - | - | - |
| 1777756825 | 16.11° C | 24% | - | 0 mm | - | - | - |
| 1777756224 | 16.11° C | 25% | - | 0 mm | - | - | - |
| 1777755022 | 15° C | 28% | - | 0 mm | - | - | - |
| 1777753820 | 15.56° C | 25% | - | 0 mm | - | - | - |
| 1777753220 | 15.56° C | 26% | - | 0 mm | - | - | - |
| 1777752619 | 15.56° C | 24% | - | 0 mm | - | - | - |
| 1777752018 | 15° C | 24% | - | 0 mm | - | - | - |
| 1777751416 | 16.11° C | 22% | - | 0 mm | - | - | - |
| 1777750815 | 16.67° C | 20% | - | 0 mm | - | - | - |
| 1777749012 | 15° C | 24% | - | 0 mm | - | - | - |
| 1777747811 | 16.11° C | 21% | - | 0 mm | - | - | - |
| 1777747209 | 16.67° C | 19% | - | 0 mm | - | - | - |
| 1777746609 | 16.67° C | 19% | - | 0 mm | - | - | - |
| 1777746007 | 16.11° C | 22% | - | 0 mm | - | - | - |
| 1777745407 | 16.11° C | 19% | - | 0 mm | - | - | - |
| 1777744806 | 16.11° C | 21% | - | 0 mm | - | - | - |
| 1777744205 | 15.56° C | 22% | - | 0 mm | - | - | - |
| 1777743603 | 15° C | 21% | - | 0 mm | - | - | - |
* Rain latest hour (hover to see other rain measurements)
** Current wind speed in m/s (hover to see current wind gust speed)